Location: Unspecified
(0.0000°N, 0.0000°E)
Time: 00:34:51
(UTC+00:00)

Tiangong - Pass Details

Date: 16 January 2022
Orbit: 381 x 387 km, 41.5° (Epoch: 27 January)

Event Time Altitude Azimuth Distance (km) Brightness Sun altitude
Rises 19:27:33 0° 204° (SSW) 2,264 5.7 -18.1°
Reaches altitude 10° 19:30:00 10° 185° (S) 1,407 4.2 -18.7°
Enters shadow 19:31:45 18° 154° (SSE) 1,018 3.1 -19.1°
